GFSSGP_700_spd_231.txt.gz
Wind_Speed
11 13 14 16 7 1 5 6 9 6 2 8 3 4 3 6 4 6 6 11 12 7 8 10 12 13 14 15 14 13 14 13 11 10 10 9 9 8 8 7 6 6 6 5 4 4 4 4 4
9 10 14 12 8 10 14 7 18 8 2 2 10 1 4 3 2 7 6 6 7 9 10 10 10 12 13 13 14 13 13 12 12 10 9 8 7 7 7 6 6 4 3 3 2 1 1 1 2
6 11 9 8 11 18 20 7 12 2 4 5 3 10 10 7 4 2 1 6 6 8 10 10 11 12 12 12 11 11 10 10 9 9 7 6 5 5 4 4 3 3 2 2 2 2 2 2 2
9 7 12 13 23 27 10 8 16 5 5 2 6 4 5 9 20 7 9 2 4 6 8 9 10 11 10 10 10 9 8 8 6 5 5 5 5 4 3 3 3 3 4 5 5 5 5 5 5
9 10 14 23 29 21 11 7 15 4 4 5 6 5 13 11 19 3 3 3 6 8 8 9 10 10 10 9 8 7 7 5 5 5 4 3 2 3 3 4 5 6 6 7 7 7 6 7 6
12 7 19 28 32 15 15 11 14 13 7 1 9 16 15 13 16 13 12 7 10 8 9 9 9 9 9 8 7 6 6 5 4 3 2 2 2 3 3 5 6 7 8 8 8 8 8 8 7
11 8 20 25 24 20 23 16 16 9 4 6 6 14 21 11 14 9 9 4 8 7 4 7 9 9 10 9 8 6 5 4 3 2 1 1 2 4 5 6 7 8 8 8 9 9 9 9 8
11 12 22 19 24 25 5 6 8 17 17 11 9 13 22 16 7 10 9 2 2 8 12 9 8 9 9 8 6 3 2 2 1 2 3 5 5 6 6 6 7 7 8 9 9 8 8 10 11
13 18 24 20 19 13 13 12 11 22 21 16 20 13 12 16 16 13 18 13 8 9 13 15 16 15 9 5 3 3 2 2 3 3 5 7 7 5 5 7 6 8 10 11 11 11 12 12 14
13 16 20 15 20 23 12 4 20 15 18 19 16 20 17 16 18 20 21 16 10 4 3 5 2 9 9 4 6 8 6 5 8 9 7 6 7 8 9 7 9 10 11 12 12 12 14 13 13
8 18 11 17 18 17 17 7 9 22 14 13 16 22 18 15 13 19 17 14 12 22 19 2 7 5 14 11 8 12 21 7 10 9 8 8 10 12 10 9 11 12 10 8 10 11 11 10 9
20 19 16 20 20 17 16 11 9 19 10 11 8 18 19 15 5 2 4 6 8 6 19 13 20 20 29 28 15 13 19 27 26 27 34 36 15 12 10 11 12 16 15 11 8 6 7 7 8
15 19 17 19 23 14 9 7 9 12 2 16 17 8 8 8 2 6 14 13 13 7 8 13 14 4 16 18 16 20 29 37 44 38 43 29 21 13 10 8 12 16 12 13 8 7 6 7 9
15 11 18 17 16 16 8 6 1 5 1 3 2 11 3 6 14 13 11 13 19 13 2 4 7 6 5 8 13 18 24 32 32 38 41 32 20 9 8 6 9 13 14 15 11 11 6 7 8
11 12 10 17 16 8 7 1 0 9 8 6 5 8 10 9 9 10 10 15 16 13 12 16 15 11 10 10 12 18 21 30 34 38 41 44 18 6 5 6 4 17 15 15 12 11 10 11 12
10 13 15 13 13 13 10 3 11 5 7 8 8 9 9 10 9 14 14 12 12 11 11 14 15 15 15 17 18 21 25 28 30 35 41 23 17 16 17 14 11 14 19 18 16 17 17 19 19
12 20 20 18 20 12 12 12 9 3 6 6 11 14 18 19 18 16 16 12 13 12 13 13 14 15 16 14 16 22 24 22 20 22 15 20 20 13 18 18 21 23 22 23 23 21 21 22 24
12 21 19 19 19 12 18 19 12 4 6 8 13 17 18 21 21 22 17 15 14 15 19 16 12 14 14 15 21 24 28 25 22 22 19 15 15 18 20 19 20 23 25 24 26 27 30 33 35
3 7 9 13 21 13 15 15 13 6 12 14 19 20 21 23 23 23 21 18 14 13 15 15 14 15 15 20 25 29 32 30 26 23 21 19 19 20 18 20 21 23 25 26 28 30 34 35 36
5 8 10 6 9 10 10 12 12 15 17 22 23 26 25 24 23 21 17 16 14 8 12 14 15 18 20 24 25 26 29 29 27 23 19 19 23 24 24 26 28 29 29 30 34 38 40 41 41
3 7 12 11 10 11 15 12 17 17 18 17 21 25 28 26 21 17 17 11 11 11 12 16 19 20 23 24 26 27 25 21 18 20 22 25 29 31 34 36 38 41 40 42 41 42 44 45 43
11 4 1 8 9 10 10 10 19 18 15 15 10 18 21 18 19 22 21 15 11 11 12 13 15 17 19 18 14 15 18 23 27 31 33 36 40 41 44 47 46 50 52 55 51 49 48 46 47
6 4 6 8 11 15 17 15 15 17 18 14 18 15 16 20 20 19 19 19 14 13 13 13 13 13 14 16 18 24 27 31 34 37 39 42 43 45 48 51 52 51 52 54 54 53 52 50 48
10 10 10 12 15 15 25 24 16 20 18 15 12 13 15 14 16 17 19 18 17 17 16 15 18 19 21 24 29 34 38 40 42 44 47 48 48 49 48 49 49 49 49 50 51 51 50 48 47
6 9 6 7 8 8 15 8 9 13 13 17 11 11 12 14 14 15 14 17 19 20 19 19 21 22 24 28 31 35 38 42 45 47 48 47 47 44 43 43 42 42 44 44 45 46 47 46 45
9 9 7 3 3 5 12 5 5 11 7 10 11 14 12 14 12 14 16 20 21 24 18 19 23 28 31 33 36 38 40 41 41 41 41 41 40 38 37 34 30 28 28 29 29 29 30 31 34
10 9 11 10 11 11 6 5 8 8 12 15 14 12 12 9 9 11 16 20 25 24 22 24 29 32 34 36 37 37 37 37 36 36 35 33 30 27 25 23 23 22 22 21 20 19 19 18 17
12 5 7 7 2 3 4 2 6 10 12 15 13 8 6 5 6 8 15 27 31 29 29 31 35 37 38 38 38 36 35 34 32 29 24 20 18 17 15 14 13 12 11 10 11 11 10 10 10
6 6 8 9 7 1 2 1 6 7 10 12 10 7 3 4 4 14 25 31 33 30 31 34 36 37 37 35 34 33 33 30 26 24 21 17 14 13 13 12 12 13 13 12 12 11 8 6 5
12 13 11 4 5 9 5 5 4 3 1 4 10 10 11 13 15 24 28 34 33 32 34 35 35 34 30 30 31 29 28 27 26 20 14 14 13 15 16 17 18 17 17 16 15 15 13 12 11

GFSSGP_700_spd_234.txt.gz
Wind_Speed
11 11 11 11 6 2 7 11 10 6 9 12 13 4 8 3 3 5 7 3 4 4 9 8 8 10 11 11 11 12 12 12 11 10 11 10 9 8 7 6 6 6 5 5 4 4 3 3 3
9 10 11 10 3 5 13 15 13 7 5 4 3 5 4 10 10 12 6 5 4 9 8 8 9 10 11 11 11 11 11 11 11 10 9 9 8 8 7 6 5 4 4 4 4 3 3 2 2
6 8 9 7 6 9 23 16 12 6 2 7 5 10 7 11 9 7 8 4 6 5 8 9 9 10 10 10 10 10 10 10 9 9 9 8 7 6 6 6 6 6 6 5 4 4 4 4 4
6 6 9 5 18 19 27 7 7 3 1 1 6 13 20 10 14 2 7 10 10 8 9 9 9 8 8 8 8 8 8 8 7 7 7 6 6 6 7 7 8 8 8 8 8 7 7 7 7
9 11 8 13 13 18 24 3 5 2 7 8 9 12 12 7 6 8 13 10 4 8 5 5 6 6 6 7 7 7 6 6 5 4 4 5 6 7 7 8 9 9 9 9 10 10 10 10 9
11 11 11 13 12 22 23 2 3 4 4 9 15 13 15 8 13 10 4 6 9 5 3 2 2 3 4 4 4 3 2 1 2 2 2 3 4 6 7 8 9 9 10 10 10 11 12 13 13
14 14 14 14 10 19 16 8 14 10 8 11 13 12 12 5 13 21 14 10 7 11 11 11 11 10 8 6 3 2 1 1 1 1 0 2 4 6 7 9 10 10 11 11 12 12 14 15 15
17 16 16 17 8 12 13 14 9 16 12 13 12 11 7 6 6 12 11 4 2 2 5 6 5 8 7 6 5 2 1 2 2 3 4 4 6 7 8 10 12 12 12 14 15 15 16 15 15
16 19 20 17 4 12 14 14 13 11 10 10 13 13 12 16 14 12 8 2 8 10 6 9 3 3 3 3 4 3 4 4 5 6 6 6 5 5 7 11 12 13 15 16 16 16 15 15 14
17 20 20 8 7 13 20 10 14 9 15 14 14 12 11 8 5 6 6 2 5 12 6 12 19 10 6 9 13 15 15 12 10 10 10 9 10 8 8 12 12 14 13 14 14 14 14 14 13
9 15 2 1 7 12 16 14 8 3 14 16 14 13 15 9 8 7 3 8 5 12 16 9 15 24 29 23 21 23 23 26 19 17 19 22 23 19 19 17 14 12 14 13 11 11 10 10 10
10 7 7 5 10 17 16 5 4 4 15 17 14 13 13 11 10 6 1 3 5 7 11 7 8 13 18 24 34 30 19 19 25 28 25 25 29 37 41 41 42 15 14 13 11 10 10 9 12
14 8 12 8 13 4 4 5 2 9 13 9 9 7 8 8 8 3 7 9 10 10 7 12 15 17 23 28 30 21 20 20 22 27 30 32 39 44 47 28 30 5 9 12 13 6 6 8 10
11 6 9 13 10 8 9 5 5 17 11 5 8 10 9 10 3 6 6 8 12 13 3 6 12 17 13 9 9 13 15 15 22 25 26 29 31 29 18 10 14 21 16 9 8 5 6 10 10
6 11 13 10 10 8 9 5 9 8 6 2 11 11 10 5 2 3 6 11 14 11 10 8 9 11 14 12 14 13 15 15 20 23 25 20 24 20 18 16 12 6 13 15 10 5 4 11 14
9 14 17 10 11 12 14 17 16 11 8 13 12 7 2 4 7 9 10 11 11 10 12 13 12 13 14 14 16 15 17 19 16 21 23 19 18 15 9 7 7 10 10 18 20 21 21 21 21
6 9 9 8 13 13 16 22 17 12 12 8 3 5 13 16 14 12 17 16 13 13 14 14 17 14 15 17 18 17 19 19 17 19 21 23 22 17 16 12 13 16 20 21 24 25 25 26 27
7 13 9 22 16 21 17 19 21 15 13 11 12 13 19 19 17 17 20 17 13 12 13 17 17 17 17 19 18 20 21 21 20 21 21 24 26 24 19 20 20 22 23 24 26 27 29 29 31
7 6 7 4 23 24 21 20 18 16 15 16 15 17 17 17 19 21 18 14 11 10 12 18 18 19 19 19 21 20 24 25 23 25 24 23 23 19 19 20 22 25 28 29 31 31 30 32 38
4 7 3 9 19 15 22 20 18 16 17 18 17 14 13 16 19 17 15 18 17 12 11 14 17 18 20 22 23 24 23 26 25 19 17 18 20 24 28 29 31 32 33 36 36 39 42 42 42
3 3 3 2 5 6 25 14 13 15 15 15 15 16 13 16 14 14 16 17 17 16 15 15 17 19 20 20 22 22 21 20 20 23 25 27 31 33 36 39 43 44 46 47 49 49 50 53 50
7 2 2 4 6 10 17 9 15 17 19 18 17 18 17 13 14 15 15 13 13 14 16 17 17 17 17 16 17 17 19 22 26 29 32 36 40 43 44 46 48 48 49 52 53 56 57 57 57
1 5 7 6 6 7 6 6 15 20 21 18 14 12 12 12 13 16 16 16 14 13 16 18 19 19 19 20 23 26 29 34 37 39 40 41 44 48 52 52 50 49 48 48 50 52 53 52 53
3 3 6 7 8 7 16 16 21 21 19 18 16 15 10 11 12 13 16 17 14 16 15 18 22 24 26 28 31 33 35 37 40 43 46 47 48 47 47 46 45 44 42 41 41 42 43 44 45
6 6 6 4 3 6 10 6 3 22 15 16 16 10 11 11 12 16 17 16 17 17 17 18 19 23 28 31 35 39 40 43 44 43 43 41 40 39 38 35 32 29 27 25 24 25 27 28 29
9 8 1 3 2 6 6 0 3 2 8 12 14 11 8 12 17 19 19 20 20 22 21 19 20 24 28 32 35 38 39 39 39 38 36 35 32 28 23 21 20 19 19 20 20 20 19 18 19
5 7 4 4 6 4 1 3 3 6 10 14 12 8 11 16 21 19 21 22 28 31 28 26 28 30 32 32 33 33 33 32 32 31 29 24 20 18 17 16 16 16 16 16 17 16 17 17 17
4 4 2 4 1 2 3 5 5 9 13 14 15 13 16 20 20 23 23 29 33 35 34 34 35 35 34 32 30 28 27 26 24 23 20 17 14 12 11 10 11 11 12 12 13 15 16 15 14
2 3 4 3 1 5 2 4 6 7 9 11 16 17 19 19 24 25 26 29 32 34 35 37 38 35 31 27 26 24 21 20 18 14 8 6 5 6 7 8 9 10 11 11 12 13 13 14 14
6 7 7 2 2 3 5 6 8 6 9 13 17 20 22 21 24 24 24 29 33 34 36 38 34 29 27 25 21 19 18 15 13 12 10 9 8 9 10 10 10 11 12 12 13 13 13 12 13

GFSSGP_700_spd_237.txt.gz
Wind_Speed
10 11 12 12 5 5 14 11 15 4 6 9 12 21 22 14 8 2 8 4 3 2 5 5 5 7 8 9 9 10 9 8 8 7 7 6 5 5 4 3 2 2 2 2 1 1 2 2 1
9 10 9 7 6 10 20 21 24 6 1 4 5 9 20 14 9 4 2 1 5 4 9 6 5 6 7 8 9 9 9 8 7 6 6 6 6 6 6 6 6 5 5 4 4 4 4 4 4
6 9 9 5 7 15 20 23 14 2 9 8 5 14 15 3 2 5 5 12 8 6 5 5 5 7 8 9 9 9 9 8 8 7 7 7 7 7 8 8 8 8 8 8 7 7 7 7 8
6 8 8 4 9 17 21 13 4 2 6 6 7 8 9 3 3 7 7 8 9 6 4 4 6 7 7 7 7 7 7 8 8 8 8 8 8 9 9 9 10 10 11 11 11 11 11 11 11
8 10 8 10 12 19 13 6 3 7 6 12 11 13 14 10 7 10 16 5 4 3 4 6 8 8 7 7 7 7 7 8 8 8 8 9 9 9 9 10 10 11 12 12 13 13 13 14 15
10 10 12 13 9 19 11 12 10 9 10 8 11 14 15 8 12 9 12 4 3 3 5 7 7 7 7 7 7 7 7 7 6 7 8 9 9 8 9 10 11 12 13 14 15 15 16 16 17
16 12 14 13 6 16 9 11 5 10 8 12 13 14 14 7 7 13 11 12 12 7 7 7 6 4 3 2 2 3 4 5 6 7 7 7 8 8 10 11 11 13 14 15 16 17 18 17 17
21 17 18 15 7 3 12 6 1 2 6 10 18 16 16 10 16 14 15 19 14 10 9 9 8 7 2 1 3 4 5 7 7 7 8 10 11 13 15 17 16 15 16 17 18 19 18 18 19
20 20 21 14 4 4 10 16 7 8 9 14 17 20 18 16 16 12 13 7 7 7 4 3 4 5 12 8 6 9 10 9 11 12 10 9 12 14 16 19 21 20 21 19 20 21 20 19 20
17 20 15 10 3 5 15 9 8 13 10 11 13 19 20 19 19 13 9 3 1 7 9 13 21 16 15 14 14 12 12 14 16 18 19 14 17 21 22 24 30 31 30 26 21 17 20 18 20
13 12 5 11 5 10 17 3 12 11 11 15 13 16 18 17 16 13 5 2 5 9 13 16 14 18 21 24 28 29 28 24 22 21 23 23 27 29 24 31 30 36 38 41 33 20 20 16 17
6 7 3 9 8 15 16 10 19 10 8 10 10 14 14 14 14 9 4 4 3 8 12 14 16 18 15 15 21 28 32 29 23 25 29 27 27 26 30 31 31 36 41 40 53 38 15 17 12
9 5 7 10 13 5 13 20 10 11 11 8 11 14 13 13 8 2 1 3 7 11 14 15 18 20 17 18 20 16 16 17 18 18 17 17 16 19 22 14 12 22 28 22 15 27 18 22 10
3 5 2 4 5 11 9 19 14 15 9 8 11 11 12 8 2 1 2 4 9 12 11 13 16 19 19 20 17 17 15 15 15 14 17 18 18 20 19 17 17 10 16 20 14 13 24 20 15
4 5 4 4 7 10 11 13 15 11 9 10 12 11 11 5 3 2 4 8 11 13 14 16 17 18 18 20 20 18 15 13 15 17 19 21 21 24 19 10 9 10 11 14 17 11 9 7 10
6 9 12 11 9 12 13 12 15 16 13 13 13 10 11 8 6 5 6 10 13 14 15 18 20 19 20 20 21 19 18 17 17 18 20 21 23 25 25 19 13 12 14 20 22 21 19 20 22
5 7 8 6 13 11 14 17 20 16 15 15 12 11 13 9 6 6 10 12 12 12 13 18 22 23 23 23 21 20 21 21 22 21 23 23 23 26 27 23 19 19 21 23 25 26 28 27 28
5 7 6 8 15 20 19 16 22 19 17 15 13 14 14 6 7 8 11 11 9 11 13 17 19 22 26 26 26 23 24 25 24 26 26 27 28 28 27 26 23 22 24 25 27 29 30 32 32
6 4 7 10 8 18 21 20 24 22 20 20 17 13 7 6 11 10 7 7 11 14 15 15 17 21 24 27 26 27 24 26 27 27 27 24 22 21 24 25 28 31 33 34 35 36 37 39 42
3 1 2 3 8 13 16 22 25 23 19 15 14 10 10 10 13 11 9 12 14 17 18 16 16 19 21 23 25 25 26 26 27 25 23 24 26 28 30 31 34 38 40 43 46 48 48 49 50
3 2 6 11 8 5 19 22 22 20 18 18 16 14 12 12 10 9 10 13 18 20 21 17 16 16 18 20 21 22 23 24 24 26 29 32 34 36 38 41 44 47 49 50 51 53 55 55 54
5 5 3 4 9 10 17 8 20 20 20 18 15 14 12 8 8 10 11 14 18 22 21 18 17 17 19 20 21 22 25 27 29 33 36 40 44 46 47 48 49 51 51 51 51 51 51 53 53
7 3 2 3 3 5 21 10 8 22 24 22 19 15 10 8 8 8 10 14 17 18 18 19 20 23 25 27 27 29 31 33 37 40 42 44 47 49 50 48 46 44 42 41 40 40 40 41 42
3 2 1 4 2 3 5 14 13 20 17 17 16 14 11 10 9 9 14 14 17 18 19 21 23 26 27 29 32 34 36 38 41 44 45 46 46 45 43 41 38 34 28 25 25 25 25 27 29
2 3 2 3 3 6 6 3 1 18 12 11 13 13 11 12 11 12 16 17 19 21 21 21 23 26 28 32 34 37 39 41 40 40 38 37 36 34 32 29 23 21 19 17 16 16 17 18 18
2 4 3 4 3 5 9 3 3 4 12 15 14 13 11 13 14 15 18 16 19 26 25 25 26 28 30 32 33 34 34 34 34 34 33 31 28 24 21 18 16 15 15 16 15 15 15 16 17
2 3 3 4 6 4 5 6 6 4 6 11 13 13 13 16 16 19 21 21 25 30 34 35 35 33 33 33 31 31 30 30 29 28 26 23 19 16 14 12 11 12 13 14 16 18 19 20 19
4 4 3 2 2 3 4 5 6 6 6 8 12 16 17 18 18 20 22 24 27 31 38 40 39 39 34 29 27 26 24 22 21 20 17 12 8 8 8 9 10 12 14 15 15 16 17 18 19
5 8 5 3 4 5 1 5 7 7 7 8 10 16 20 21 21 20 25 26 28 32 41 41 43 36 28 25 23 19 15 12 10 9 8 7 6 7 8 10 11 13 14 14 15 16 16 17 17
10 12 9 5 5 6 3 6 9 9 8 9 12 20 23 22 21 24 26 27 28 35 42 42 35 29 24 21 17 13 9 8 6 6 7 8 8 8 9 9 10 11 11 13 13 13 14 15 15

GFSSGP_700_spd_240.txt.gz
Wind_Speed
10 12 12 10 8 8 14 8 20 10 3 8 10 12 17 19 4 2 4 5 6 7 6 6 5 3 3 4 6 7 7 7 6 6 6 6 6 6 5 5 4 4 4 4 4 4 4 4 4
9 9 9 7 11 19 17 10 20 4 3 9 10 10 10 8 2 7 6 6 5 3 3 2 3 4 3 3 4 6 7 8 8 8 8 8 7 7 7 7 6 6 6 7 7 7 8 8 8
7 8 8 5 14 17 19 21 8 4 4 9 9 9 7 4 7 9 10 8 6 4 2 1 2 3 3 3 5 6 7 8 8 8 8 8 9 9 9 9 9 9 10 10 10 11 11 11 11
7 7 7 7 15 18 17 13 12 13 8 10 8 5 10 5 9 5 7 4 7 3 3 3 4 4 3 5 6 7 7 8 9 9 10 11 11 11 11 11 12 13 14 14 14 15 15 15 14
9 8 4 8 15 18 14 10 10 9 9 15 14 13 11 4 3 7 12 11 11 6 6 5 6 6 6 6 6 7 7 8 9 10 10 11 11 12 13 15 16 17 17 17 18 18 18 17 17
11 10 8 4 12 14 13 15 11 6 11 13 14 16 12 8 12 15 14 16 11 7 8 7 5 6 5 5 5 5 7 8 8 10 11 11 11 12 14 16 18 19 20 20 19 20 21 21 21
16 13 14 8 4 13 8 11 4 6 8 14 18 19 18 16 20 16 15 13 9 9 8 5 1 1 1 3 4 2 2 4 5 6 6 7 10 11 11 13 15 18 21 23 24 22 21 22 23
21 16 18 13 5 6 9 12 7 4 11 16 18 16 19 21 18 16 15 15 12 10 8 5 4 3 1 4 6 7 6 5 5 8 10 11 12 13 16 17 15 17 19 22 24 27 24 23 22
22 20 22 18 10 10 7 9 2 6 12 15 18 19 18 17 16 13 12 9 7 6 4 1 5 5 4 2 3 6 9 10 11 11 14 17 17 17 21 25 26 27 28 30 28 29 30 29 24
18 22 20 16 11 6 6 5 7 11 11 14 12 15 16 14 12 11 9 5 3 4 8 12 13 13 7 10 14 19 22 22 23 21 20 20 21 22 25 27 41 42 36 36 33 32 31 32 31
16 16 10 10 8 6 4 3 9 14 15 13 14 14 9 13 7 7 4 3 5 8 11 14 16 13 13 17 17 17 23 22 17 18 18 20 24 25 25 21 23 31 40 35 34 38 39 37 35
10 6 5 7 6 7 11 9 20 12 12 13 14 14 13 11 9 3 1 2 4 7 11 13 15 15 16 15 15 17 20 16 14 15 16 21 17 21 19 21 23 22 22 30 28 33 41 44 47
6 2 5 4 6 4 5 15 20 18 11 14 14 13 12 8 6 3 3 4 6 8 10 11 13 15 17 18 20 21 20 20 17 17 18 17 17 18 21 22 21 22 17 11 15 23 23 30 26
3 3 3 3 4 9 13 24 18 17 13 15 14 14 11 5 2 1 3 6 8 12 13 15 16 18 19 21 23 23 22 20 18 16 17 20 20 20 22 23 22 20 16 13 13 12 15 15 15
3 2 1 1 7 10 14 24 24 16 14 14 13 13 10 5 5 6 6 9 13 15 18 20 21 22 22 22 22 24 25 22 21 18 20 20 21 24 24 24 24 21 19 22 19 17 17 20 18
4 2 5 6 9 14 20 22 22 19 16 16 15 12 9 9 6 9 10 13 15 18 20 21 22 23 23 23 24 25 23 23 24 25 23 22 25 26 27 28 27 25 24 24 25 24 23 24 23
4 4 4 12 15 16 21 17 24 22 19 17 15 13 13 12 10 11 14 17 19 18 17 18 21 24 25 25 25 25 26 26 24 25 26 26 28 28 30 29 28 25 23 22 22 26 28 29 28
2 1 5 8 22 17 26 17 25 24 22 20 19 16 12 13 12 11 14 16 15 13 14 16 19 23 25 27 29 29 26 25 27 27 29 30 30 29 28 26 26 27 28 30 30 32 34 36 36
7 5 5 2 13 22 22 20 27 25 23 22 21 16 14 12 11 11 9 8 8 8 12 14 17 21 25 27 27 28 28 29 29 30 31 32 31 29 27 29 31 33 36 37 40 40 41 44 45
4 3 4 2 5 12 21 23 32 27 23 22 19 17 15 12 10 9 8 8 9 11 13 17 20 22 23 23 24 25 25 26 27 28 30 30 29 31 33 35 38 42 44 46 48 49 49 50 51
4 3 6 5 6 7 16 19 29 27 26 24 22 21 15 10 9 6 4 6 11 18 19 20 22 24 25 26 26 28 29 30 31 32 34 36 37 39 41 43 45 47 49 51 52 52 52 50 47
6 4 3 4 6 4 15 7 24 25 26 23 24 19 15 9 7 2 4 8 11 15 17 19 21 24 26 28 29 31 32 33 34 36 38 40 43 45 46 48 49 48 46 43 41 40 39 39 38
8 4 2 2 5 4 18 5 6 21 25 26 22 18 13 9 7 3 2 6 11 13 18 23 27 30 31 32 32 34 35 36 38 40 42 44 46 48 47 44 41 38 35 31 27 26 27 26 26
9 6 3 4 6 4 6 17 7 13 13 14 16 14 11 12 8 4 5 8 11 15 23 28 30 32 33 34 35 37 37 37 38 39 39 41 40 39 37 33 30 26 22 20 19 18 18 19 20
5 4 2 2 1 5 1 7 7 4 7 8 12 12 11 10 9 5 8 9 12 20 28 33 34 35 32 32 32 33 33 33 33 33 32 32 31 30 27 23 20 17 15 14 15 16 16 17 18
6 2 4 4 2 4 3 5 4 5 8 10 9 12 12 9 10 7 11 13 19 24 29 34 39 39 38 36 32 30 29 29 28 28 28 27 26 21 17 14 12 11 13 15 16 17 17 18 20
5 2 3 1 1 2 4 8 10 4 3 6 8 13 10 12 12 11 14 15 21 24 30 35 41 42 36 31 28 27 27 26 25 24 21 18 13 10 9 10 10 12 14 15 18 19 20 21 21
4 3 3 3 1 3 4 6 7 5 5 5 7 9 12 11 13 13 15 16 22 27 31 36 41 39 34 30 28 27 24 21 17 14 12 11 10 9 9 10 11 13 14 16 17 19 19 20 20
5 8 6 5 3 5 2 4 6 7 7 6 6 9 10 13 14 17 17 19 26 29 32 36 41 37 30 26 26 25 20 14 10 8 8 9 10 10 10 10 11 13 14 15 16 17 18 19 19
8 9 12 10 5 7 5 10 10 2 8 10 10 11 12 15 17 17 17 22 27 30 33 38 40 30 25 23 21 19 13 9 8 8 9 11 11 11 12 13 14 15 15 16 17 17 17 17 18

GFSSGP_700_spd_246.txt.gz
Wind_Speed
10 8 10 10 3 5 8 5 7 6 7 6 7 6 8 4 2 1 3 8 4 3 4 4 6 5 4 3 2 4 5 7 8 7 7 7 8 8 8 9 9 8 8 9 8 8 7 7 7
8 6 7 9 2 5 7 6 8 5 5 3 2 3 8 7 4 7 9 5 3 2 5 5 5 4 3 2 2 2 3 5 6 7 7 8 9 10 10 11 11 12 12 13 13 13 13 12 11
3 8 8 2 1 8 11 8 9 10 8 2 5 6 6 7 8 9 6 5 6 6 6 6 4 2 2 3 2 2 3 3 3 4 6 7 9 10 11 12 14 15 16 17 18 18 18 18 17
2 5 7 4 6 9 12 13 13 12 6 5 8 6 12 10 9 8 9 8 8 6 5 6 4 3 4 4 4 5 5 5 5 5 5 5 6 7 8 10 11 12 13 15 16 18 20 21 22
1 4 3 6 9 10 13 15 13 7 7 8 9 12 15 13 13 9 8 8 6 6 7 8 7 6 5 6 7 6 4 3 3 4 5 5 6 7 9 10 10 12 13 14 14 16 18 20 21
3 3 6 7 11 11 9 13 12 7 8 11 12 13 14 13 11 8 8 8 7 7 8 8 7 7 7 6 5 4 4 4 5 5 6 8 10 12 12 13 15 16 18 20 21 20 19 18 20
7 6 5 5 9 9 7 12 5 7 10 11 10 8 12 14 10 10 10 9 8 9 10 10 8 7 7 6 5 6 7 8 9 10 9 10 11 13 14 17 19 20 21 22 24 24 23 24 22
12 9 10 9 10 9 5 5 10 7 11 10 6 5 10 12 12 10 10 10 10 11 9 8 6 6 5 4 4 5 7 11 13 13 14 17 17 18 20 19 20 22 23 24 25 27 29 31 32
19 15 16 13 11 8 6 7 13 11 13 7 7 5 10 13 10 10 8 7 7 8 7 3 4 6 6 6 9 12 13 12 14 15 15 14 13 17 18 18 17 17 18 20 21 24 27 29 30
18 18 16 12 14 12 6 9 15 11 13 8 9 9 13 6 6 6 6 5 6 6 6 4 5 7 5 8 9 10 11 13 14 15 15 15 16 15 16 16 15 16 18 19 22 23 25 25 20
14 15 15 13 15 15 7 11 15 15 13 11 13 11 11 8 5 3 2 2 3 4 5 6 9 10 9 10 12 14 16 17 17 16 16 17 18 17 14 16 15 17 19 21 22 21 21 19 15
9 13 10 13 14 15 8 13 18 13 17 15 14 14 13 10 7 5 2 2 4 5 7 10 12 13 13 14 16 18 20 19 18 18 18 20 20 18 18 19 19 19 20 21 22 21 21 19 15
11 9 12 11 17 16 16 13 19 21 18 17 15 15 12 10 8 6 4 6 8 10 12 13 13 15 16 18 20 21 22 21 21 21 21 22 22 21 21 21 21 23 23 24 24 23 23 23 21
12 10 13 13 18 19 18 21 19 21 21 20 19 12 12 9 6 4 6 8 11 12 15 17 18 19 20 20 21 21 22 23 24 25 25 26 25 25 26 26 25 25 27 27 26 23 24 24 24
9 10 10 13 19 18 18 17 28 25 22 21 22 14 11 8 6 7 8 11 13 16 18 19 19 21 21 22 22 22 24 25 26 28 28 28 29 29 28 28 29 29 30 30 28 25 22 23 24
10 12 13 10 14 18 18 17 28 25 23 23 23 17 15 13 11 10 12 14 16 18 20 22 22 20 18 18 19 20 21 23 25 28 30 31 31 30 30 30 31 31 32 31 28 25 26 27 28
14 16 13 11 12 14 17 15 27 27 26 24 23 20 19 17 14 15 15 17 18 20 20 18 15 16 17 18 20 22 23 23 24 26 27 29 30 30 32 33 34 33 32 30 29 30 31 32 35
15 11 13 14 13 13 14 14 26 30 29 25 22 23 19 20 18 17 18 18 19 18 15 14 15 16 17 20 22 25 27 28 28 28 28 28 29 29 31 32 32 31 32 33 34 36 37 39 42
9 11 10 11 19 14 15 20 20 28 30 26 25 24 23 23 20 19 19 20 19 17 15 14 15 16 19 23 25 28 31 33 35 34 34 33 33 32 33 34 34 33 36 37 39 41 43 44 48
10 11 10 8 11 14 15 18 23 23 31 31 27 27 27 25 22 19 19 20 18 16 13 13 13 17 20 24 28 31 33 37 39 39 39 37 36 36 36 36 37 37 40 42 42 43 43 42 41
12 13 11 7 10 12 13 16 28 30 27 34 32 31 30 26 21 20 19 19 16 12 11 11 14 19 25 29 33 36 39 40 40 40 40 39 37 37 38 38 38 38 39 40 38 35 32 28 25
13 11 10 9 11 6 14 6 11 23 31 33 36 33 30 25 22 19 21 16 13 11 10 12 18 24 30 34 36 37 38 36 36 36 36 35 34 33 33 32 31 31 31 29 26 23 19 17 16
8 10 11 11 5 5 13 9 5 5 12 26 35 35 30 26 23 19 17 13 13 12 11 16 22 29 34 38 38 37 34 32 32 31 31 30 29 27 26 25 24 22 19 17 15 14 14 14 15
10 12 10 7 7 14 6 8 9 11 11 17 23 32 27 26 22 18 15 14 12 11 13 19 26 33 38 39 38 35 32 30 29 27 25 24 23 21 19 16 13 11 10 10 11 12 13 14 16
12 13 12 10 9 1 3 7 12 6 11 10 21 20 20 23 19 16 17 16 11 11 14 21 28 36 38 37 34 31 29 28 26 22 18 16 15 12 8 6 5 6 7 8 10 11 12 13 14
15 12 11 4 4 3 4 7 2 7 8 11 12 12 13 16 16 15 17 15 12 14 16 23 31 36 35 33 31 29 27 24 20 15 13 12 11 10 9 8 7 7 8 9 10 11 11 12 13
13 12 3 5 4 11 3 3 8 5 5 5 8 11 15 13 14 13 14 17 14 14 18 25 32 34 32 31 29 25 23 18 15 12 11 11 12 11 11 10 10 10 11 11 12 13 13 14 15
11 11 7 11 4 6 6 8 6 1 5 5 9 10 12 13 14 13 13 14 14 17 21 26 31 31 29 28 25 22 18 14 12 11 11 11 11 12 12 12 12 13 12 13 13 14 15 17 18
12 11 7 4 5 5 6 6 1 5 6 5 4 7 11 12 12 13 13 12 13 18 21 27 30 29 27 25 22 18 13 11 10 10 10 10 11 11 12 13 13 13 14 14 15 16 18 18 19
12 9 11 10 7 7 10 17 3 5 4 5 7 9 10 12 14 14 14 13 15 18 21 27 27 26 24 21 17 13 11 8 9 9 9 9 10 11 13 14 14 15 16 16 17 18 19 20 21